CAPE
0 0 0 0 0 0 0 0 0 0 0 0 0 0 0 0 0 0 0 0 0 0 0 31 41 2 34 69 23 0 0 0 0 0 0 0 0 0 0 0 0 0 0 0
0 0 0 0 0 0 0 0 0 0 0 0 0 0 0 0 0 0 0 0 0 0 0 0 0 0 2 4 3 0 0 0 0 0 0 0 0 0 0 0 0 1 4 6
0 0 0 0 0 0 0 0 0 0 0 0 0 0 0 0 0 0 0 0 0 0 0 0 0 0 0 0 0 0 0 0 0 0 0 1 2 4 3 2 7 3 1 7
0 0 0 0 0 0 0 0 0 0 0 0 0 0 0 0 0 0 0 0 0 0 0 0 0 0 0 0 0 0 0 0 0 0 0 0 2 2 4 2 8 5 1 13
0 0 0 0 0 0 0 0 0 0 0 0 0 0 0 0 0 0 0 0 0 0 0 0 0 0 0 0 0 0 0 0 0 0 0 0 0 3 5 2 1 8 5 17
0 0 0 0 0 0 0 0 0 0 0 0 0 0 0 0 0 0 0 0 0 0 0 0 0 0 0 0 0 0 0 0 0 0 0 0 0 2 2 0 0 1 8 13
0 0 0 0 0 0 0 0 0 0 0 0 0 0 0 0 0 0 0 0 0 0 0 0 0 0 0 0 0 0 0 0 0 0 0 0 0 2 3 1 4 7 4 10
0 0 0 0 0 0 0 0 0 0 0 0 0 0 0 0 0 0 0 0 0 0 0 0 0 0 0 0 0 0 0 0 0 0 0 0 0 0 3 1 5 3 1 0
0 0 0 0 0 0 0 0 0 0 0 0 0 0 0 0 0 0 0 0 0 0 0 0 0 0 0 0 0 0 0 0 0 0 0 0 0 0 1 3 0 0 0 1
0 0 0 0 0 0 0 0 0 0 0 0 0 0 0 0 0 0 0 0 0 0 0 0 0 0 0 0 0 0 0 0 0 0 0 0 0 0 0 2 3 1 1 0
0 0 0 0 0 0 0 0 0 0 0 0 0 0 0 0 0 0 0 0 0 0 0 0 0 0 0 0 0 0 0 0 0 0 0 0 0 0 0 0 2 1 1 0
0 0 0 0 0 0 0 0 0 0 0 0 0 0 0 0 0 0 0 0 0 0 0 0 0 0 0 0 0 0 0 0 0 0 0 0 0 0 0 0 2 1 0 0
0 0 1 0 0 0 0 0 0 0 0 0 0 0 0 0 0 0 0 0 0 0 0 0 0 0 0 0 0 0 0 0 0 0 0 0 0 0 0 0 0 1 0 0
0 0 0 8 4 1 0 0 0 0 22 0 0 0 0 0 0 0 0 0 0 0 0 0 0 0 0 0 0 0 0 0 0 0 0 0 0 0 0 0 0 1 4 1
0 0 0 0 0 0 0 0 0 0 0 1 0 0 0 0 0 0 0 0 0 0 0 0 0 0 0 0 0 0 0 0 0 0 0 0 0 0 0 0 0 0 3 1
0 0 0 0 0 0 1 0 0 0 0 0 0 0 0 0 0 0 0 0 0 0 0 0 0 0 0 0 0 0 0 0 0 0 0 0 0 0 0 0 0 0 3 1
0 0 0 4 3 0 1 0 0 0 0 0 0 0 0 0 0 0 0 0 0 0 0 0 0 0 0 0 0 0 0 0 0 0 0 0 0 0 0 0 0 0 0 3
12 0 3 2 0 3 0 0 0 0 0 0 0 0 0 0 0 0 0 0 0 0 0 0 0 0 0 0 0 0 0 0 0 0 0 0 0 0 0 0 0 0 0 0
0 8 2 3 7 0 0 0 0 0 0 0 0 0 0 0 0 0 0 0 0 0 0 0 0 0 0 0 0 0 0 0 0 0 0 0 0 0 0 0 0 0 0 0
0 0 3 10 4 2 0 0 0 0 0 0 0 0 2 0 8 0 0 0 0 0 0 0 0 0 0 0 0 0 0 0 0 0 0 0 0 0 0 0 0 0 0 0
0 0 4 2 4 1 0 0 0 0 0 0 0 0 0 11 13 15 0 0 0 0 0 0 0 0 0 0 0 0 0 0 0 0 0 0 0 0 0 0 0 0 0 0
19 18 3 3 17 10 0 0 2 2 0 2 7 25 11 20 22 9 1 0 0 0 0 0 0 0 0 0 0 0 0 0 0 0 0 0 0 0 0 0 0 0 0 0
11 7 4 10 2 4 0 0 6 20 19 0 5 12 13 10 9 1 0 0 0 0 0 0 0 0 0 0 0 0 0 0 0 0 0 0 0 0 0 0 0 0 0 0
0 0 3 8 0 3 21 23 19 44 26 4 4 18 19 29 12 0 0 1 6 1 5 1 0 0 0 0 0 0 0 0 0 0 0 0 0 0 0 0 0 0 0 0
6 19 16 27 24 26 2 9 16 25 4 21 6 5 14 2 0 6 9 3 0 4 9 1 0 1 0 0 0 0 0 0 0 0 0 0 0 0 0 0 0 0 0 0
2 1 53 28 13 47 25 10 1 19 23 12 12 1 0 0 0 4 3 6 0 4 13 3 3 3 0 0 0 0 0 0 0 0 0 0 0 0 0 0 0 0 0 0
CIN
0 0 0 0 0 0 0 0 0 0 0 0 0 0 0 0 0 0 0 0 0 0 0 0 -11 -53 -80 -109 -159 0 0 0 0 0 0 0 0 0 0 0 0 0 0 0
0 0 0 0 0 0 0 0 0 0 0 0 0 0 0 0 0 0 0 0 0 0 0 0 0 0 -124 -154 -164 0 0 0 0 0 0 0 0 0 0 0 0 0 0 0
0 0 0 0 0 0 0 0 0 0 0 0 0 0 0 0 0 0 0 0 0 0 0 0 0 0 -61 0 0 0 0 0 0 0 0 0 0 0 0 0 0 0 0 -2
0 0 0 0 0 0 0 0 0 0 0 0 0 0 0 0 0 0 0 0 0 0 0 0 0 0 0 0 0 0 0 0 0 0 0 0 0 0 0 -1 -1 -4 0 0
0 0 0 0 0 0 0 0 0 0 0 0 0 0 0 0 0 0 0 0 0 0 0 0 0 0 0 0 0 0 0 0 0 0 0 0 0 0 0 0 0 0 0 0
0 0 0 0 0 0 0 0 0 0 0 0 0 0 0 0 0 0 0 0 0 0 0 0 0 0 0 0 0 0 0 0 0 0 0 0 0 0 0 -1 0 0 0 0
0 0 0 0 0 0 0 0 0 0 0 0 0 0 0 0 0 0 0 0 0 0 0 0 0 0 0 0 0 0 0 0 0 0 0 0 0 0 0 0 0 0 0 0
0 0 0 0 0 0 0 0 0 0 0 0 0 0 0 0 0 0 0 0 0 0 0 0 0 0 0 0 0 0 0 0 0 0 0 0 0 0 0 0 0 0 0 0
0 0 0 0 0 0 0 0 0 0 0 0 0 0 0 0 0 0 0 0 0 0 0 0 0 0 0 0 0 0 0 0 0 0 0 0 0 0 0 0 0 0 0 0
0 0 0 0 0 0 0 0 0 0 0 0 0 0 0 0 0 0 0 0 0 0 0 0 0 0 0 0 0 0 0 0 0 0 0 0 0 0 0 0 0 0 0 0
0 0 0 0 0 0 0 0 0 0 0 0 0 0 0 0 0 0 0 0 0 0 0 0 0 0 0 0 0 0 0 0 0 0 0 0 0 0 0 0 0 -1 0 0
0 0 0 0 0 0 0 0 0 0 0 0 0 0 0 0 0 0 0 0 0 0 0 0 0 0 0 0 0 0 0 0 0 0 0 0 0 0 0 0 0 -1 0 0
0 0 0 0 0 0 0 0 0 0 0 0 0 0 0 0 0 0 0 0 0 0 0 0 0 0 0 0 0 0 0 0 0 0 0 0 0 0 0 0 0 0 0 0
0 0 0 0 0 -1 -2 0 0 0 0 0 0 0 0 0 0 0 0 0 0 0 0 0 0 0 0 0 0 0 0 0 0 0 0 0 0 0 0 0 0 0 0 0
0 0 0 0 0 0 0 0 0 0 0 0 0 0 0 0 0 0 0 0 0 0 0 0 0 0 0 0 0 0 0 0 0 0 0 0 0 0 0 0 0 0 0 0
0 0 0 0 0 0 0 0 0 0 0 0 0 0 0 0 0 0 0 0 0 0 0 0 0 0 0 0 0 0 0 0 0 0 0 0 0 0 0 0 0 0 0 0
0 0 0 0 -1 0 0 0 0 0 0 0 0 0 0 0 0 0 0 0 0 0 0 0 0 0 0 0 0 0 0 0 0 0 0 0 0 0 0 0 0 0 0 0
0 0 0 0 0 0 0 0 0 0 0 0 0 0 0 0 0 0 0 0 0 0 0 0 0 0 0 0 0 0 0 0 0 0 0 0 0 0 0 0 0 0 0 0
0 -1 0 0 -1 -1 0 0 0 0 0 0 0 0 0 0 0 0 0 0 0 0 0 0 0 0 0 0 0 0 0 0 0 0 0 0 0 0 0 0 0 0 0 0
0 0 0 0 0 0 0 0 0 0 0 0 0 0 0 0 0 0 0 0 0 0 0 0 0 0 0 0 0 0 0 0 0 0 0 0 0 0 0 0 0 0 0 0
0 0 0 0 0 0 -1 0 0 0 0 0 0 0 0 0 0 0 0 0 0 0 0 0 0 0 0 0 0 0 0 0 0 0 0 0 0 0 0 0 0 0 0 0
0 0 0 0 0 -1 0 0 -3 -7 0 0 0 0 0 0 0 0 0 0 0 0 0 0 0 0 0 0 0 0 0 0 0 0 0 0 0 0 0 0 0 0 0 0
0 0 0 -1 0 -7 0 0 -12 -5 -5 0 0 0 0 0 0 0 0 0 0 0 0 0 0 0 0 0 0 0 0 0 0 0 0 0 0 0 0 0 0 0 0 0
0 0 0 0 0 0 0 0 0 0 -6 -8 0 -1 0 0 0 0 0 0 0 0 0 0 0 0 0 0 0 0 0 0 0 0 0 0 0 0 0 0 0 0 0 0
0 0 0 0 0 -1 0 -2 -5 -1 -6 0 0 0 0 0 0 0 0 0 0 0 0 0 0 0 0 0 0 0 0 0 0 0 0 0 0 0 0 0 0 0 0 0
0 0 0 0 0 0 -1 -12 0 0 0 -2 0 -4 0 0 0 0 0 0 0 0 0 0 0 0 0 0 0 0 0 0 0 0 0 0 0 0 0 0 0 0 0 0
Wind_Speed
4 4 4 6 5 8 10 13 16 17 9 19 9 22 20 16 13 16 15 13 6 5 9 8 10 6 6 7 7 7 6 6 5 5 5 5 6 6 7 7 10 10 10 12
4 4 4 5 6 9 11 15 15 8 7 17 15 22 15 4 8 14 13 10 2 5 5 6 8 6 6 8 8 7 6 6 5 4 4 4 5 6 7 8 10 11 11 12
6 5 4 7 9 11 11 13 14 14 22 6 14 6 7 10 6 11 14 7 5 5 6 6 6 6 6 6 6 7 5 5 5 6 4 5 6 6 7 7 7 7 10 7
5 2 5 8 9 6 10 4 11 17 12 4 8 6 7 10 11 11 12 11 7 4 5 4 3 6 8 8 6 6 7 7 6 7 6 8 7 8 7 7 7 7 12 10
3 4 5 7 5 6 9 16 15 8 8 9 4 5 6 12 14 13 11 10 8 3 2 6 8 6 5 6 7 8 8 8 7 7 8 6 8 6 5 5 10 10 9 10
6 0 4 4 9 9 16 16 12 3 4 5 4 4 1 10 12 13 12 8 6 4 2 3 3 5 7 7 7 8 8 8 8 8 8 9 9 8 6 6 6 7 7 7
3 3 1 3 11 5 11 12 3 2 2 3 2 6 6 6 9 9 9 9 4 1 2 3 4 5 6 7 8 7 8 8 8 8 9 9 9 9 10 9 6 7 7 7
5 1 1 3 4 7 9 7 3 5 5 8 7 5 3 3 5 4 5 5 5 4 3 5 6 6 7 8 8 8 9 9 8 8 8 7 8 6 6 6 6 7 8 8
7 1 3 1 2 3 5 3 5 5 3 5 5 5 3 5 4 5 7 7 7 7 8 8 7 7 8 9 9 9 9 9 9 8 7 8 8 8 7 8 8 8 10 8
3 7 2 3 3 3 2 3 3 2 6 7 5 8 6 6 2 9 12 12 12 11 11 9 8 9 9 10 9 9 10 11 10 9 9 8 7 8 8 7 10 10 10 11
2 3 1 2 6 1 4 3 3 3 4 5 7 4 7 3 4 11 13 12 12 12 11 10 10 10 10 9 9 10 10 11 11 10 10 10 8 8 8 7 7 7 10 11
3 5 6 12 5 2 5 3 4 2 3 6 5 11 1 2 1 9 13 12 11 10 11 10 10 10 9 10 10 10 9 10 10 11 10 9 9 8 9 8 6 6 9 9
2 3 7 3 3 3 5 7 9 2 2 14 7 6 2 4 9 13 10 11 11 11 11 9 9 9 9 10 10 9 9 10 10 10 10 9 9 9 9 9 7 8 8 7
3 4 9 12 16 16 16 16 12 13 7 12 19 20 18 20 11 14 11 10 11 10 10 9 10 11 10 9 9 10 10 9 9 10 11 11 10 9 8 8 9 9 8 8
5 6 13 20 22 21 23 24 22 21 21 17 20 23 25 21 21 13 7 10 15 13 12 12 13 12 12 12 10 9 9 10 9 10 10 12 10 9 8 8 8 8 8 8
4 6 4 9 18 22 22 22 26 24 22 25 27 30 25 20 5 6 8 12 15 14 11 12 14 15 13 14 12 10 10 9 9 10 11 11 10 9 8 8 8 8 8 9
7 4 3 15 14 12 15 19 13 9 14 15 17 22 11 9 10 11 11 14 15 14 12 15 17 16 15 15 14 13 11 10 10 10 11 11 10 10 10 9 9 9 8 7
19 6 3 9 8 11 6 10 10 12 15 13 17 15 11 9 11 13 15 14 14 14 17 17 16 16 15 15 15 14 12 11 10 11 12 11 10 10 9 9 9 9 7 8
12 11 4 5 11 19 21 5 3 5 11 10 12 4 9 14 15 15 12 17 16 20 19 17 16 16 16 17 15 15 14 12 12 11 13 11 11 11 10 9 9 7 6 6
2 9 6 5 6 8 6 4 3 1 11 9 11 15 21 21 14 12 17 17 19 19 17 17 18 16 16 16 15 14 15 14 15 11 12 11 11 11 10 10 9 7 6 6
3 5 14 13 10 12 9 3 2 6 6 14 15 15 15 15 13 18 19 20 19 18 20 18 16 14 16 15 14 16 16 16 14 12 11 11 11 11 10 9 7 7 7 7
7 6 6 6 7 10 9 5 4 13 18 18 19 13 14 17 18 19 20 18 18 19 20 20 16 15 14 14 14 15 15 16 14 14 12 11 11 10 8 10 8 9 8 8
9 12 12 13 10 14 20 19 19 16 19 19 17 19 20 19 20 20 17 18 18 18 16 16 17 18 16 15 14 16 16 16 14 13 13 12 11 10 10 10 9 8 9 7
18 18 19 20 16 17 15 20 20 19 16 17 20 21 20 20 19 20 18 18 16 16 17 16 17 19 19 17 16 17 18 16 15 15 14 11 10 11 10 8 8 8 8 8
13 16 19 20 19 22 22 20 22 20 20 19 20 20 21 19 20 19 17 18 16 16 15 16 17 17 20 19 18 18 18 16 16 15 14 11 9 10 9 9 8 9 9 9
14 21 16 19 22 20 19 17 23 21 19 17 17 18 17 17 18 17 15 13 12 14 16 16 17 18 20 19 19 18 17 17 16 14 12 9 8 8 8 8 7 10 4 7
Wind_Direction
48 285 287 350 325 303 299 292 295 297 359 320 306 298 308 314 337 332 333 327 325 259 244 226 261 246 192 196 205 221 212 216 224 245 257 267 273 283 277 270 274 280 278 273
228 252 2 309 295 286 281 288 301 318 313 317 302 303 297 335 335 356 354 343 300 227 236 236 236 217 202 206 210 227 222 225 222 237 251 273 285 291 300 299 287 280 280 274
280 16 302 286 297 295 299 293 331 313 322 278 311 230 12 28 34 22 20 18 318 245 230 194 214 212 201 218 217 220 228 230 237 240 259 259 256 252 259 268 280 285 279 270
270 20 306 303 298 325 302 37 315 311 316 329 12 312 1 22 5 17 29 23 1 309 216 201 244 200 194 206 204 213 224 225 231 235 239 254 272 282 288 296 277 279 287 277
50 289 314 299 342 323 281 329 306 311 286 303 151 261 327 21 1 5 25 27 30 28 276 200 188 209 215 203 216 223 228 226 233 238 245 256 265 274 280 285 294 280 275 275
273 2 258 306 304 271 290 290 274 258 269 248 76 322 352 16 4 355 8 20 40 50 131 183 194 199 215 216 227 231 237 239 234 236 247 255 263 277 280 288 288 289 281 272
253 194 172 295 306 193 321 332 334 275 218 303 141 272 268 29 14 7 359 359 7 350 233 199 217 223 243 241 245 245 245 251 250 249 251 255 266 280 285 294 284 295 292 278
336 295 337 31 8 319 329 346 22 303 318 308 270 243 93 42 58 34 37 2 356 342 280 261 257 250 243 242 245 251 254 256 253 260 264 263 259 264 275 289 298 291 293 291
342 320 137 77 338 328 2 1 356 284 227 261 245 252 196 132 121 42 24 358 353 340 318 302 288 267 259 259 252 251 251 249 248 250 256 263 271 275 283 288 289 293 299 301
50 285 134 120 228 155 285 6 255 225 312 302 280 299 275 176 76 24 355 348 340 335 320 297 285 276 271 266 262 257 251 251 252 251 251 252 259 267 271 283 292 300 305 308
309 254 208 233 194 311 174 200 207 247 274 294 304 271 27 348 32 356 340 338 334 330 322 316 311 300 277 263 262 263 256 255 255 248 247 246 245 258 269 269 282 296 303 303
52 304 280 284 103 344 276 262 262 244 206 249 288 269 176 94 91 318 345 335 339 336 331 323 317 310 299 285 270 259 254 254 250 250 253 251 255 258 265 265 261 275 283 296
145 228 301 274 142 185 239 221 251 216 296 241 247 253 64 162 324 339 341 343 338 341 346 346 338 333 324 312 299 283 265 260 261 257 249 247 249 255 254 261 251 262 273 293
196 241 228 259 290 318 294 279 241 227 236 264 230 271 278 303 313 330 347 345 342 336 350 356 350 340 335 319 303 292 280 271 262 253 250 249 247 248 253 259 260 253 254 272
221 239 249 261 278 282 276 276 274 255 232 251 273 273 277 296 307 301 320 343 344 347 341 348 344 341 330 322 317 307 293 279 272 256 245 247 248 246 250 253 257 260 259 266
210 271 351 278 273 268 277 275 263 257 256 256 261 269 280 290 328 319 307 335 339 333 331 335 331 327 327 323 313 312 301 287 274 265 253 243 241 243 245 249 257 259 254 260
188 228 259 278 304 331 278 253 253 255 230 244 250 253 318 278 331 332 316 320 321 331 330 327 320 316 313 316 310 305 302 298 286 260 258 254 251 241 239 241 242 249 253 252
256 189 214 289 311 262 299 298 270 264 269 248 251 272 309 323 327 327 304 293 324 333 323 312 308 309 306 306 303 299 298 288 278 269 260 252 249 250 245 241 241 245 242 243
248 237 231 252 255 286 288 299 14 356 311 341 279 293 347 332 320 300 324 344 332 317 306 302 299 302 301 302 300 301 289 287 274 266 261 254 243 238 240 237 235 235 243 247
219 224 191 208 259 268 72 126 52 18 285 36 19 346 332 322 307 311 340 321 305 301 301 302 300 298 292 291 300 300 293 287 276 269 265 261 245 239 234 233 229 224 220 230
156 209 216 236 253 270 296 2 71 270 354 330 323 310 316 311 311 316 314 309 308 310 308 307 303 299 294 295 294 292 292 276 278 274 267 255 243 232 230 225 217 215 216 216
258 235 209 232 251 269 24 89 251 338 322 324 320 329 313 307 308 312 303 310 310 307 308 311 310 305 302 297 292 285 281 283 281 283 268 260 241 234 221 217 204 209 215 213
257 237 270 269 267 305 318 304 311 317 315 322 328 315 316 306 306 306 306 304 303 308 313 315 315 312 306 300 296 294 289 287 285 276 274 263 255 236 221 208 208 198 212 215
258 266 261 266 274 278 297 314 299 298 332 313 313 311 309 308 307 305 308 306 310 314 314 312 312 308 307 307 304 295 294 293 287 282 274 268 250 241 223 213 208 203 204 206
279 293 275 278 292 291 294 311 318 311 308 305 305 308 306 311 309 309 308 308 307 310 306 316 311 311 307 306 302 299 300 295 286 280 272 262 259 237 220 220 210 217 213 207
265 269 278 285 291 294 306 298 292 308 320 326 313 300 306 305 304 309 311 312 307 306 311 314 311 312 309 309 305 304 301 296 287 280 273 261 247 234 219 205 210 226 217 206